owner,sensor,date,latitude,longitude,vertical_datum,sea_water_temperature,qcFlag
BP,ioos:station:wmo:42907:1,2021-07-01T00:09:00Z,28.4401,-88.2729,14.7,28.4,11111222
BP,ioos:station:wmo:42907:1,2021-07-01T00:19:00Z,28.4401,-88.2729,14.8,28.4,11111222
BP,ioos:station:wmo:42907:1,2021-07-01T00:29:00Z,28.4401,-88.2729,14.8,28.4,11111222
BP,ioos:station:wmo:42907:1,2021-07-01T00:39:00Z,28.4401,-88.2729,14.8,28.4,11111222
BP,ioos:station:wmo:42907:1,2021-07-01T00:49:00Z,28.4401,-88.2729,15.0,28.4,11111222
BP,ioos:station:wmo:42907:1,2021-07-01T00:59:00Z,28.4401,-88.2729,15.0,28.4,11111222
BP,ioos:station:wmo:42907:1,2021-07-01T01:09:00Z,28.4401,-88.2729,15.0,28.4,11111222
BP,ioos:station:wmo:42907:1,2021-07-01T01:19:00Z,28.4401,-88.2729,15.1,28.4,11111222
BP,ioos:station:wmo:42907:1,2021-07-01T01:29:00Z,28.4401,-88.2729,15.1,28.4,11111222
BP,ioos:station:wmo:42907:1,2021-07-01T01:39:00Z,28.4401,-88.2729,15.1,28.4,11111222
BP,ioos:station:wmo:42907:1,2021-07-01T01:50:00Z,28.4401,-88.2729,15.1,28.4,11111222
BP,ioos:station:wmo:42907:1,2021-07-01T02:00:00Z,28.4401,-88.2729,15.1,28.4,11111222
BP,ioos:station:wmo:42907:1,2021-07-01T02:10:00Z,28.4401,-88.2729,14.9,28.4,11111222
BP,ioos:station:wmo:42907:1,2021-07-01T02:20:00Z,28.4401,-88.2729,14.9,28.4,11111222
BP,ioos:station:wmo:42907:1,2021-07-01T02:30:00Z,28.4401,-88.2729,14.9,28.4,11111222
BP,ioos:station:wmo:42907:1,2021-07-01T02:40:00Z,28.4401,-88.2729,14.9,28.4,11111222
BP,ioos:station:wmo:42907:1,2021-07-01T02:50:00Z,28.4401,-88.2729,14.9,28.4,11111222
BP,ioos:station:wmo:42907:1,2021-07-01T03:00:00Z,28.4401,-88.2729,15.0,28.4,11111222
BP,ioos:station:wmo:42907:1,2021-07-01T03:10:00Z,28.4401,-88.2729,15.1,28.4,11111222
BP,ioos:station:wmo:42907:1,2021-07-01T03:20:00Z,28.4401,-88.2729,15.2,28.4,11111222
BP,ioos:station:wmo:42907:1,2021-07-01T03:30:00Z,28.4401,-88.2729,15.1,28.4,11111222
BP,ioos:station:wmo:42907:1,2021-07-01T03:40:00Z,28.4401,-88.2729,15.1,28.4,11111222
BP,ioos:station:wmo:42907:1,2021-07-01T03:50:00Z,28.4401,-88.2729,15.1,28.4,11111222
BP,ioos:station:wmo:42907:1,2021-07-01T04:00:00Z,28.4401,-88.2729,15.1,28.4,11111222
BP,ioos:station:wmo:42907:1,2021-07-01T04:10:00Z,28.4401,-88.2729,15.0,28.4,11111222
BP,ioos:station:wmo:42907:1,2021-07-01T04:20:00Z,28.4401,-88.2729,15.2,28.4,11111222
BP,ioos:station:wmo:42907:1,2021-07-01T04:30:00Z,28.4401,-88.2729,15.2,28.4,11111222
BP,ioos:station:wmo:42907:1,2021-07-01T04:40:00Z,28.4401,-88.2729,15.2,28.4,11111222
BP,ioos:station:wmo:42907:1,2021-07-01T04:50:00Z,28.4401,-88.2729,15.2,28.4,11111222
BP,ioos:station:wmo:42907:1,2021-07-01T05:00:00Z,28.4401,-88.2729,15.2,28.4,11111222
BP,ioos:station:wmo:42907:1,2021-07-01T05:10:00Z,28.4401,-88.2729,15.2,28.4,11111222
BP,ioos:station:wmo:42907:1,2021-07-01T05:20:00Z,28.4401,-88.2729,15.1,28.4,11111222
BP,ioos:station:wmo:42907:1,2021-07-01T05:30:00Z,28.4401,-88.2729,15.1,28.4,11111222
BP,ioos:station:wmo:42907:1,2021-07-01T05:40:00Z,28.4401,-88.2729,15.0,28.4,11111222
BP,ioos:station:wmo:42907:1,2021-07-01T05:50:00Z,28.4401,-88.2729,15.0,28.4,11111222
BP,ioos:station:wmo:42907:1,2021-07-01T06:00:00Z,28.4401,-88.2729,15.0,28.4,11111222
BP,ioos:station:wmo:42907:1,2021-07-01T06:10:00Z,28.4401,-88.2729,15.1,28.4,11111222
BP,ioos:station:wmo:42907:1,2021-07-01T06:20:00Z,28.4401,-88.2729,15.0,28.4,11111222
BP,ioos:station:wmo:42907:1,2021-07-01T06:30:00Z,28.4401,-88.2729,15.0,28.4,11111222
BP,ioos:station:wmo:42907:1,2021-07-01T06:40:00Z,28.4401,-88.2729,15.0,28.4,11111222
BP,ioos:station:wmo:42907:1,2021-07-01T06:50:00Z,28.4401,-88.2729,15.0,28.4,11111222
BP,ioos:station:wmo:42907:1,2021-07-01T07:00:00Z,28.4401,-88.2729,15.1,28.4,11111222
BP,ioos:station:wmo:42907:1,2021-07-01T07:10:00Z,28.4401,-88.2729,14.9,28.4,11111222
BP,ioos:station:wmo:42907:1,2021-07-01T07:20:00Z,28.4401,-88.2729,14.9,28.4,11111222
BP,ioos:station:wmo:42907:1,2021-07-01T07:30:00Z,28.4401,-88.2729,15.0,28.4,11111222
BP,ioos:station:wmo:42907:1,2021-07-01T07:40:00Z,28.4401,-88.2729,15.0,28.4,11111222
BP,ioos:station:wmo:42907:1,2021-07-01T07:50:00Z,28.4401,-88.2729,15.0,28.4,11111222
BP,ioos:station:wmo:42907:1,2021-07-01T08:00:00Z,28.4401,-88.2729,14.9,28.4,11111222
BP,ioos:station:wmo:42907:1,2021-07-01T08:10:00Z,28.4401,-88.2729,15.0,28.4,11111222
BP,ioos:station:wmo:42907:1,2021-07-01T08:20:00Z,28.4401,-88.2729,15.0,28.4,11111222
BP,ioos:station:wmo:42907:1,2021-07-01T08:30:00Z,28.4401,-88.2729,15.0,28.4,11111222
BP,ioos:station:wmo:42907:1,2021-07-01T08:40:00Z,28.4401,-88.2729,15.1,28.2,11111222
BP,ioos:station:wmo:42907:1,2021-07-01T08:50:00Z,28.4401,-88.2729,15.2,28.4,11111222
BP,ioos:station:wmo:42907:1,2021-07-01T09:00:00Z,28.4401,-88.2729,15.0,28.4,11111222
BP,ioos:station:wmo:42907:1,2021-07-01T09:11:00Z,28.4401,-88.2729,15.0,28.4,11111222
BP,ioos:station:wmo:42907:1,2021-07-01T09:21:00Z,28.4401,-88.2729,14.9,28.4,11111222
BP,ioos:station:wmo:42907:1,2021-07-01T09:31:00Z,28.4401,-88.2729,14.9,28.3,11111222
BP,ioos:station:wmo:42907:1,2021-07-01T09:41:00Z,28.4401,-88.2729,14.9,28.3,11111222
BP,ioos:station:wmo:42907:1,2021-07-01T09:51:00Z,28.4401,-88.2729,14.8,28.3,11111222
BP,ioos:station:wmo:42907:1,2021-07-01T10:01:00Z,28.4401,-88.2729,14.8,28.4,11111222
BP,ioos:station:wmo:42907:1,2021-07-01T10:11:00Z,28.4401,-88.2729,14.8,28.4,11111222
BP,ioos:station:wmo:42907:1,2021-07-01T10:21:00Z,28.4401,-88.2729,14.9,28.4,11111222
BP,ioos:station:wmo:42907:1,2021-07-01T10:31:00Z,28.4401,-88.2729,14.8,28.4,11111222
BP,ioos:station:wmo:42907:1,2021-07-01T10:41:00Z,28.4401,-88.2729,14.8,28.3,11111222
BP,ioos:station:wmo:42907:1,2021-07-01T10:51:00Z,28.4401,-88.2729,14.8,28.3,11111222
BP,ioos:station:wmo:42907:1,2021-07-01T11:01:00Z,28.4401,-88.2729,14.8,28.3,11111222
BP,ioos:station:wmo:42907:1,2021-07-01T11:11:00Z,28.4401,-88.2729,14.8,28.3,11111222
BP,ioos:station:wmo:42907:1,2021-07-01T11:21:00Z,28.4401,-88.2729,14.8,28.3,11111222
BP,ioos:station:wmo:42907:1,2021-07-01T11:31:00Z,28.4401,-88.2729,14.8,28.3,11111222
BP,ioos:station:wmo:42907:1,2021-07-01T11:41:00Z,28.4401,-88.2729,15.0,28.3,11111222
BP,ioos:station:wmo:42907:1,2021-07-01T11:51:00Z,28.4401,-88.2729,14.8,28.3,11111222
BP,ioos:station:wmo:42907:1,2021-07-01T12:01:00Z,28.4401,-88.2729,14.8,28.3,11111222
BP,ioos:station:wmo:42907:1,2021-07-01T12:11:00Z,28.4401,-88.2729,15.0,28.3,11111222
BP,ioos:station:wmo:42907:1,2021-07-01T12:21:00Z,28.4401,-88.2729,15.1,28.3,11111222
BP,ioos:station:wmo:42907:1,2021-07-01T12:31:00Z,28.4401,-88.2729,15.1,28.3,11111222
BP,ioos:station:wmo:42907:1,2021-07-01T12:41:00Z,28.4401,-88.2729,15.0,28.3,11111222
BP,ioos:station:wmo:42907:1,2021-07-01T12:51:00Z,28.4401,-88.2729,15.0,28.3,11111222
BP,ioos:station:wmo:42907:1,2021-07-01T13:01:00Z,28.4401,-88.2729,14.9,28.3,11111222
BP,ioos:station:wmo:42907:1,2021-07-01T13:11:00Z,28.4401,-88.2729,14.8,28.3,11111222
BP,ioos:station:wmo:42907:1,2021-07-01T13:21:00Z,28.4401,-88.2729,14.6,28.3,11111222
BP,ioos:station:wmo:42907:1,2021-07-01T13:31:00Z,28.4401,-88.2729,14.9,28.3,11111222
BP,ioos:station:wmo:42907:1,2021-07-01T13:41:00Z,28.4401,-88.2729,15.0,28.3,11111222
BP,ioos:station:wmo:42907:1,2021-07-01T13:51:00Z,28.4401,-88.2729,15.0,28.3,11111222
BP,ioos:station:wmo:42907:1,2021-07-01T14:01:00Z,28.4401,-88.2729,15.0,28.2,11111222
BP,ioos:station:wmo:42907:1,2021-07-01T14:11:00Z,28.4401,-88.2729,15.0,28.2,11111222
BP,ioos:station:wmo:42907:1,2021-07-01T14:21:00Z,28.4401,-88.2729,15.0,28.2,11111222
BP,ioos:station:wmo:42907:1,2021-07-01T14:31:00Z,28.4401,-88.2729,14.9,28.2,11111222
BP,ioos:station:wmo:42907:1,2021-07-01T14:41:00Z,28.4401,-88.2729,14.8,28.2,11111222
BP,ioos:station:wmo:42907:1,2021-07-01T14:51:00Z,28.4401,-88.2729,15.0,28.3,11111222
BP,ioos:station:wmo:42907:1,2021-07-01T15:01:00Z,28.4401,-88.2729,15.1,28.3,11111222
BP,ioos:station:wmo:42907:1,2021-07-01T15:11:00Z,28.4401,-88.2729,15.1,28.3,11111222
BP,ioos:station:wmo:42907:1,2021-07-01T15:21:00Z,28.4401,-88.2729,14.9,28.3,11111222
BP,ioos:station:wmo:42907:1,2021-07-01T15:31:00Z,28.4401,-88.2729,15.0,28.3,11111222
BP,ioos:station:wmo:42907:1,2021-07-01T15:41:00Z,28.4401,-88.2729,14.9,28.3,11111222
BP,ioos:station:wmo:42907:1,2021-07-01T15:51:00Z,28.4401,-88.2729,14.9,28.3,11111222
BP,ioos:station:wmo:42907:1,2021-07-01T16:01:00Z,28.4401,-88.2729,14.9,28.3,11111222
BP,ioos:station:wmo:42907:1,2021-07-01T16:11:00Z,28.4401,-88.2729,14.9,28.3,11111222
BP,ioos:station:wmo:42907:1,2021-07-01T16:21:00Z,28.4401,-88.2729,14.9,28.3,11111222
BP,ioos:station:wmo:42907:1,2021-07-01T16:32:00Z,28.4401,-88.2729,15.0,28.3,11111222
BP,ioos:station:wmo:42907:1,2021-07-01T16:42:00Z,28.4401,-88.2729,15.0,28.2,11111222
BP,ioos:station:wmo:42907:1,2021-07-01T16:52:00Z,28.4401,-88.2729,15.0,28.1,11111222
BP,ioos:station:wmo:42907:1,2021-07-01T17:02:00Z,28.4401,-88.2729,14.9,28.1,11111222
BP,ioos:station:wmo:42907:1,2021-07-01T17:12:00Z,28.4401,-88.2729,15.0,28.1,11111222
BP,ioos:station:wmo:42907:1,2021-07-01T17:22:00Z,28.4401,-88.2729,14.9,28.1,11111222
BP,ioos:station:wmo:42907:1,2021-07-01T17:32:00Z,28.4401,-88.2729,14.9,28.1,11111222
BP,ioos:station:wmo:42907:1,2021-07-01T17:42:00Z,28.4401,-88.2729,14.8,28.2,11111222
BP,ioos:station:wmo:42907:1,2021-07-01T17:52:00Z,28.4401,-88.2729,14.9,28.1,11111222
BP,ioos:station:wmo:42907:1,2021-07-01T18:02:00Z,28.4401,-88.2729,15.0,28.1,11111222
BP,ioos:station:wmo:42907:1,2021-07-01T18:12:00Z,28.4401,-88.2729,14.9,28.1,11111222
BP,ioos:station:wmo:42907:1,2021-07-01T18:22:00Z,28.4401,-88.2729,14.6,28.1,11111222
BP,ioos:station:wmo:42907:1,2021-07-01T18:32:00Z,28.4401,-88.2729,14.8,28.2,11111222
BP,ioos:station:wmo:42907:1,2021-07-01T18:42:00Z,28.4401,-88.2729,14.8,28.1,11111222
BP,ioos:station:wmo:42907:1,2021-07-01T18:52:00Z,28.4401,-88.2729,15.0,28.2,11111222
BP,ioos:station:wmo:42907:1,2021-07-01T19:02:00Z,28.4401,-88.2729,14.7,28.2,11111222
BP,ioos:station:wmo:42907:1,2021-07-01T19:12:00Z,28.4401,-88.2729,14.8,28.1,11111222
BP,ioos:station:wmo:42907:1,2021-07-01T19:22:00Z,28.4401,-88.2729,15.0,28.2,11111222
BP,ioos:station:wmo:42907:1,2021-07-01T19:32:00Z,28.4401,-88.2729,14.8,28.2,11111222
BP,ioos:station:wmo:42907:1,2021-07-01T19:42:00Z,28.4401,-88.2729,14.6,28.2,11111222
BP,ioos:station:wmo:42907:1,2021-07-01T19:52:00Z,28.4401,-88.2729,14.7,28.1,11111222
BP,ioos:station:wmo:42907:1,2021-07-01T20:02:00Z,28.4401,-88.2729,14.8,28.1,11111222
BP,ioos:station:wmo:42907:1,2021-07-01T20:12:00Z,28.4401,-88.2729,14.9,28.1,11111222
BP,ioos:station:wmo:42907:1,2021-07-01T20:22:00Z,28.4401,-88.2729,14.8,28.1,11111222
BP,ioos:station:wmo:42907:1,2021-07-01T20:32:00Z,28.4401,-88.2729,14.8,28.1,11111222
BP,ioos:station:wmo:42907:1,2021-07-01T20:42:00Z,28.4401,-88.2729,15.0,28.1,11111222
BP,ioos:station:wmo:42907:1,2021-07-01T20:52:00Z,28.4401,-88.2729,14.9,28.1,11111222
BP,ioos:station:wmo:42907:1,2021-07-01T21:02:00Z,28.4401,-88.2729,14.7,28.1,11111222
BP,ioos:station:wmo:42907:1,2021-07-01T21:12:00Z,28.4401,-88.2729,14.8,28.1,11111222
BP,ioos:station:wmo:42907:1,2021-07-01T21:22:00Z,28.4401,-88.2729,14.6,28.1,11111222
BP,ioos:station:wmo:42907:1,2021-07-01T21:32:00Z,28.4401,-88.2729,14.5,28.1,11111222
BP,ioos:station:wmo:42907:1,2021-07-01T21:42:00Z,28.4401,-88.2729,14.6,28.1,11111222
BP,ioos:station:wmo:42907:1,2021-07-01T21:52:00Z,28.4401,-88.2729,14.9,28.1,11111222
BP,ioos:station:wmo:42907:1,2021-07-01T22:02:00Z,28.4401,-88.2729,14.8,28.2,11111222
BP,ioos:station:wmo:42907:1,2021-07-01T22:12:00Z,28.4401,-88.2729,14.7,28.2,11111222
BP,ioos:station:wmo:42907:1,2021-07-01T22:22:00Z,28.4401,-88.2729,14.8,28.2,11111222
BP,ioos:station:wmo:42907:1,2021-07-01T22:32:00Z,28.4401,-88.2729,14.7,28.2,11111222
BP,ioos:station:wmo:42907:1,2021-07-01T22:42:00Z,28.4401,-88.2729,14.7,28.2,11111222
BP,ioos:station:wmo:42907:1,2021-07-01T22:52:00Z,28.4401,-88.2729,14.7,28.2,11111222
BP,ioos:station:wmo:42907:1,2021-07-01T23:02:00Z,28.4401,-88.2729,14.8,28.2,11111222
BP,ioos:station:wmo:42907:1,2021-07-01T23:12:00Z,28.4401,-88.2729,14.8,28.2,11111222
BP,ioos:station:wmo:42907:1,2021-07-01T23:22:00Z,28.4401,-88.2729,14.7,28.2,11111222
BP,ioos:station:wmo:42907:1,2021-07-01T23:32:00Z,28.4401,-88.2729,14.7,28.2,11111222
BP,ioos:station:wmo:42907:1,2021-07-01T23:42:00Z,28.4401,-88.2729,14.7,28.2,11111222
BP,ioos:station:wmo:42907:1,2021-07-01T23:53:00Z,28.4401,-88.2729,14.6,28.2,11111222
BP,ioos:station:wmo:42907:1,2021-07-02T00:03:00Z,28.4401,-88.2729,14.4,28.2,11111222
BP,ioos:station:wmo:42907:1,2021-07-02T00:13:00Z,28.4401,-88.2729,14.7,28.2,11111222
BP,ioos:station:wmo:42907:1,2021-07-02T00:23:00Z,28.4401,-88.2729,14.8,28.2,11111222
BP,ioos:station:wmo:42907:1,2021-07-02T00:33:00Z,28.4401,-88.2729,14.9,28.2,11111222
BP,ioos:station:wmo:42907:1,2021-07-02T00:43:00Z,28.4401,-88.2729,15.0,28.2,11111222
BP,ioos:station:wmo:42907:1,2021-07-02T00:53:00Z,28.4401,-88.2729,15.1,28.2,11111222
BP,ioos:station:wmo:42907:1,2021-07-02T01:03:00Z,28.4401,-88.2729,15.0,28.2,11111222
BP,ioos:station:wmo:42907:1,2021-07-02T01:13:00Z,28.4401,-88.2729,15.0,28.2,11111222
BP,ioos:station:wmo:42907:1,2021-07-02T01:23:00Z,28.4401,-88.2729,14.9,28.2,11111222
BP,ioos:station:wmo:42907:1,2021-07-02T01:33:00Z,28.4401,-88.2729,15.1,28.2,11111222
BP,ioos:station:wmo:42907:1,2021-07-02T01:43:00Z,28.4401,-88.2729,15.1,28.2,11111222
BP,ioos:station:wmo:42907:1,2021-07-02T01:53:00Z,28.4401,-88.2729,15.0,28.2,11111222
BP,ioos:station:wmo:42907:1,2021-07-02T02:03:00Z,28.4401,-88.2729,14.9,28.2,11111222
BP,ioos:station:wmo:42907:1,2021-07-02T02:13:00Z,28.4401,-88.2729,14.9,28.1,11111222
BP,ioos:station:wmo:42907:1,2021-07-02T02:23:00Z,28.4401,-88.2729,15.0,28.1,11111222
BP,ioos:station:wmo:42907:1,2021-07-02T02:33:00Z,28.4401,-88.2729,14.9,28.1,11111222
BP,ioos:station:wmo:42907:1,2021-07-02T02:43:00Z,28.4401,-88.2729,15.0,28.1,11111222
BP,ioos:station:wmo:42907:1,2021-07-02T02:53:00Z,28.4401,-88.2729,15.1,28.1,11111222
BP,ioos:station:wmo:42907:1,2021-07-02T03:03:00Z,28.4401,-88.2729,15.1,28.1,11111222
BP,ioos:station:wmo:42907:1,2021-07-02T03:13:00Z,28.4401,-88.2729,15.0,28.1,11111222
BP,ioos:station:wmo:42907:1,2021-07-02T03:23:00Z,28.4401,-88.2729,15.2,28.1,11111222
BP,ioos:station:wmo:42907:1,2021-07-02T03:33:00Z,28.4401,-88.2729,15.0,28.1,11111222
BP,ioos:station:wmo:42907:1,2021-07-02T03:43:00Z,28.4401,-88.2729,15.1,28.1,11111222
BP,ioos:station:wmo:42907:1,2021-07-02T03:53:00Z,28.4401,-88.2729,15.2,28.1,11111222
BP,ioos:station:wmo:42907:1,2021-07-02T04:03:00Z,28.4401,-88.2729,15.1,28.1,11111222
BP,ioos:station:wmo:42907:1,2021-07-02T04:13:00Z,28.4401,-88.2729,15.2,28.1,11111222
BP,ioos:station:wmo:42907:1,2021-07-02T04:23:00Z,28.4401,-88.2729,15.0,28.1,11111222
BP,ioos:station:wmo:42907:1,2021-07-02T04:33:00Z,28.4401,-88.2729,15.0,28.1,11111222
BP,ioos:station:wmo:42907:1,2021-07-02T04:43:00Z,28.4401,-88.2729,15.2,28.1,11111222
BP,ioos:station:wmo:42907:1,2021-07-02T04:53:00Z,28.4401,-88.2729,15.1,28.1,11111222
BP,ioos:station:wmo:42907:1,2021-07-02T05:03:00Z,28.4401,-88.2729,15.2,28.1,11111222
BP,ioos:station:wmo:42907:1,2021-07-02T05:13:00Z,28.4401,-88.2729,15.2,28.1,11111222
BP,ioos:station:wmo:42907:1,2021-07-02T05:23:00Z,28.4401,-88.2729,15.0,28.1,11111222
BP,ioos:station:wmo:42907:1,2021-07-02T05:33:00Z,28.4401,-88.2729,15.0,28.1,11111222
BP,ioos:station:wmo:42907:1,2021-07-02T05:43:00Z,28.4401,-88.2729,15.1,28.1,11111222
BP,ioos:station:wmo:42907:1,2021-07-02T05:53:00Z,28.4401,-88.2729,15.1,28.1,11111222
BP,ioos:station:wmo:42907:1,2021-07-02T06:03:00Z,28.4401,-88.2729,14.9,28.1,11111222
BP,ioos:station:wmo:42907:1,2021-07-02T06:13:00Z,28.4401,-88.2729,14.9,28.1,11111222
BP,ioos:station:wmo:42907:1,2021-07-02T06:23:00Z,28.4401,-88.2729,15.0,28.1,11111222
BP,ioos:station:wmo:42907:1,2021-07-02T06:33:00Z,28.4401,-88.2729,15.1,28.1,11111222
BP,ioos:station:wmo:42907:1,2021-07-02T06:43:00Z,28.4401,-88.2729,15.2,28.1,11111222
BP,ioos:station:wmo:42907:1,2021-07-02T06:53:00Z,28.4401,-88.2729,15.2,28.1,11111222
BP,ioos:station:wmo:42907:1,2021-07-02T07:04:00Z,28.4401,-88.2729,15.3,28.1,11111222
BP,ioos:station:wmo:42907:1,2021-07-02T07:14:00Z,28.4401,-88.2729,15.3,28.1,11111222
BP,ioos:station:wmo:42907:1,2021-07-02T07:24:00Z,28.4401,-88.2729,15.0,28.1,11111222
BP,ioos:station:wmo:42907:1,2021-07-02T07:34:00Z,28.4401,-88.2729,15.0,28.1,11111222
BP,ioos:station:wmo:42907:1,2021-07-02T07:44:00Z,28.4401,-88.2729,15.2,28.1,11111222
BP,ioos:station:wmo:42907:1,2021-07-02T07:54:00Z,28.4401,-88.2729,15.1,28.1,11111222
BP,ioos:station:wmo:42907:1,2021-07-02T08:04:00Z,28.4401,-88.2729,15.1,28.1,11111222
BP,ioos:station:wmo:42907:1,2021-07-02T08:14:00Z,28.4401,-88.2729,15.3,28.0,11111222
BP,ioos:station:wmo:42907:1,2021-07-02T08:24:00Z,28.4401,-88.2729,15.2,28.1,11111222
BP,ioos:station:wmo:42907:1,2021-07-02T08:34:00Z,28.4401,-88.2729,15.3,28.0,11111222
BP,ioos:station:wmo:42907:1,2021-07-02T08:44:00Z,28.4401,-88.2729,15.4,28.0,11111222
BP,ioos:station:wmo:42907:1,2021-07-02T08:54:00Z,28.4401,-88.2729,15.2,28.0,11111222
BP,ioos:station:wmo:42907:1,2021-07-02T09:04:00Z,28.4401,-88.2729,15.3,28.0,11111222
BP,ioos:station:wmo:42907:1,2021-07-02T09:14:00Z,28.4401,-88.2729,15.1,28.0,11111222
BP,ioos:station:wmo:42907:1,2021-07-02T09:24:00Z,28.4401,-88.2729,15.0,28.0,11111222
BP,ioos:station:wmo:42907:1,2021-07-02T09:34:00Z,28.4401,-88.2729,15.1,28.0,11111222
BP,ioos:station:wmo:42907:1,2021-07-02T09:44:00Z,28.4401,-88.2729,15.2,28.0,11111222
BP,ioos:station:wmo:42907:1,2021-07-02T09:54:00Z,28.4401,-88.2729,15.2,28.0,11111222
BP,ioos:station:wmo:42907:1,2021-07-02T10:04:00Z,28.4401,-88.2729,15.3,28.0,11111222
BP,ioos:station:wmo:42907:1,2021-07-02T10:14:00Z,28.4401,-88.2729,15.3,28.0,11111222
BP,ioos:station:wmo:42907:1,2021-07-02T10:24:00Z,28.4401,-88.2729,15.3,28.0,11111222
BP,ioos:station:wmo:42907:1,2021-07-02T10:34:00Z,28.4401,-88.2729,15.3,27.9,11111222
BP,ioos:station:wmo:42907:1,2021-07-02T10:44:00Z,28.4401,-88.2729,15.0,27.9,11111222
BP,ioos:station:wmo:42907:1,2021-07-02T10:54:00Z,28.4401,-88.2729,14.9,27.9,11111222
BP,ioos:station:wmo:42907:1,2021-07-02T11:04:00Z,28.4401,-88.2729,14.8,28.0,11111222
BP,ioos:station:wmo:42907:1,2021-07-02T11:14:00Z,28.4401,-88.2729,14.9,28.0,11111222
BP,ioos:station:wmo:42907:1,2021-07-02T11:24:00Z,28.4401,-88.2729,15.0,27.9,11111222
BP,ioos:station:wmo:42907:1,2021-07-02T11:34:00Z,28.4401,-88.2729,14.9,27.9,11111222
BP,ioos:station:wmo:42907:1,2021-07-02T11:44:00Z,28.4401,-88.2729,14.9,27.9,11111222
BP,ioos:station:wmo:42907:1,2021-07-02T11:54:00Z,28.4401,-88.2729,15.0,28.0,11111222
BP,ioos:station:wmo:42907:1,2021-07-02T12:04:00Z,28.4401,-88.2729,15.1,27.9,11111222
BP,ioos:station:wmo:42907:1,2021-07-02T12:14:00Z,28.4401,-88.2729,15.2,28.0,11111222
BP,ioos:station:wmo:42907:1,2021-07-02T12:24:00Z,28.4401,-88.2729,14.9,28.0,11111222
BP,ioos:station:wmo:42907:1,2021-07-02T12:34:00Z,28.4401,-88.2729,15.1,28.0,11111222
BP,ioos:station:wmo:42907:1,2021-07-02T12:44:00Z,28.4401,-88.2729,15.1,28.0,11111222
BP,ioos:station:wmo:42907:1,2021-07-02T12:54:00Z,28.4401,-88.2729,15.0,27.9,11111222
BP,ioos:station:wmo:42907:1,2021-07-02T13:04:00Z,28.4401,-88.2729,15.0,27.9,11111222
BP,ioos:station:wmo:42907:1,2021-07-02T13:14:00Z,28.4401,-88.2729,15.0,27.9,11111222
BP,ioos:station:wmo:42907:1,2021-07-02T13:24:00Z,28.4401,-88.2729,15.0,27.9,11111222
BP,ioos:station:wmo:42907:1,2021-07-02T13:34:00Z,28.4401,-88.2729,15.1,27.9,11111222
BP,ioos:station:wmo:42907:1,2021-07-02T13:44:00Z,28.4401,-88.2729,15.2,27.9,11111222
BP,ioos:station:wmo:42907:1,2021-07-02T13:54:00Z,28.4401,-88.2729,15.2,27.9,11111222
BP,ioos:station:wmo:42907:1,2021-07-02T14:04:00Z,28.4401,-88.2729,15.3,27.9,11111222
BP,ioos:station:wmo:42907:1,2021-07-02T14:14:00Z,28.4401,-88.2729,15.1,27.9,11111222
BP,ioos:station:wmo:42907:1,2021-07-02T14:25:00Z,28.4401,-88.2729,15.1,27.9,11111222
BP,ioos:station:wmo:42907:1,2021-07-02T14:35:00Z,28.4401,-88.2729,14.9,27.9,11111222
BP,ioos:station:wmo:42907:1,2021-07-02T14:45:00Z,28.4401,-88.2729,15.1,27.9,11111222
BP,ioos:station:wmo:42907:1,2021-07-02T14:55:00Z,28.4401,-88.2729,15.2,27.9,11111222
BP,ioos:station:wmo:42907:1,2021-07-02T15:05:00Z,28.4401,-88.2729,15.1,27.9,11111222
BP,ioos:station:wmo:42907:1,2021-07-02T15:15:00Z,28.4401,-88.2729,15.1,27.9,11111222
BP,ioos:station:wmo:42907:1,2021-07-02T15:25:00Z,28.4401,-88.2729,15.2,27.9,11111222
BP,ioos:station:wmo:42907:1,2021-07-02T15:35:00Z,28.4401,-88.2729,15.2,28.0,11111222
BP,ioos:station:wmo:42907:1,2021-07-02T15:45:00Z,28.4401,-88.2729,15.1,28.0,11111222
BP,ioos:station:wmo:42907:1,2021-07-02T15:55:00Z,28.4401,-88.2729,15.0,28.0,11111222
BP,ioos:station:wmo:42907:1,2021-07-02T16:05:00Z,28.4401,-88.2729,15.0,28.0,11111222
BP,ioos:station:wmo:42907:1,2021-07-02T16:15:00Z,28.4401,-88.2729,14.9,28.0,11111222
BP,ioos:station:wmo:42907:1,2021-07-02T16:25:00Z,28.4401,-88.2729,15.1,28.0,11111222
BP,ioos:station:wmo:42907:1,2021-07-02T16:35:00Z,28.4401,-88.2729,15.1,28.0,11111222
BP,ioos:station:wmo:42907:1,2021-07-02T16:45:00Z,28.4401,-88.2729,15.0,28.0,11111222
BP,ioos:station:wmo:42907:1,2021-07-02T16:55:00Z,28.4401,-88.2729,15.0,28.0,11111222
BP,ioos:station:wmo:42907:1,2021-07-02T17:05:00Z,28.4401,-88.2729,14.8,28.0,11111222
BP,ioos:station:wmo:42907:1,2021-07-02T17:15:00Z,28.4401,-88.2729,15.1,28.0,11111222
BP,ioos:station:wmo:42907:1,2021-07-02T17:25:00Z,28.4401,-88.2729,15.2,28.0,11111222
BP,ioos:station:wmo:42907:1,2021-07-02T17:35:00Z,28.4401,-88.2729,15.2,28.0,11111222
BP,ioos:station:wmo:42907:1,2021-07-02T17:45:00Z,28.4401,-88.2729,15.0,28.0,11111222
BP,ioos:station:wmo:42907:1,2021-07-02T17:55:00Z,28.4401,-88.2729,15.0,28.0,11111222
BP,ioos:station:wmo:42907:1,2021-07-02T18:05:00Z,28.4401,-88.2729,15.2,28.0,11111222
BP,ioos:station:wmo:42907:1,2021-07-02T18:15:00Z,28.4401,-88.2729,15.2,28.0,11111222
BP,ioos:station:wmo:42907:1,2021-07-02T18:25:00Z,28.4401,-88.2729,15.2,28.1,11111222
BP,ioos:station:wmo:42907:1,2021-07-02T18:35:00Z,28.4401,-88.2729,15.0,28.0,11111222
BP,ioos:station:wmo:42907:1,2021-07-02T18:45:00Z,28.4401,-88.2729,14.9,28.1,11111222
BP,ioos:station:wmo:42907:1,2021-07-02T18:55:00Z,28.4401,-88.2729,15.1,28.0,11111222
BP,ioos:station:wmo:42907:1,2021-07-02T19:05:00Z,28.4401,-88.2729,15.1,28.1,11111222
BP,ioos:station:wmo:42907:1,2021-07-02T19:15:00Z,28.4401,-88.2729,15.1,28.1,11111222
BP,ioos:station:wmo:42907:1,2021-07-02T19:25:00Z,28.4401,-88.2729,15.0,28.1,11111222
BP,ioos:station:wmo:42907:1,2021-07-02T19:35:00Z,28.4401,-88.2729,15.0,28.1,11111222
BP,ioos:station:wmo:42907:1,2021-07-02T19:45:00Z,28.4401,-88.2729,15.2,28.1,11111222
BP,ioos:station:wmo:42907:1,2021-07-02T19:55:00Z,28.4401,-88.2729,14.9,28.1,11111222
BP,ioos:station:wmo:42907:1,2021-07-02T20:05:00Z,28.4401,-88.2729,15.1,28.1,11111222
BP,ioos:station:wmo:42907:1,2021-07-02T20:15:00Z,28.4401,-88.2729,15.0,28.1,11111222
BP,ioos:station:wmo:42907:1,2021-07-02T20:25:00Z,28.4401,-88.2729,15.0,28.1,11111222
BP,ioos:station:wmo:42907:1,2021-07-02T20:35:00Z,28.4401,-88.2729,15.0,28.1,11111222
BP,ioos:station:wmo:42907:1,2021-07-02T20:45:00Z,28.4401,-88.2729,14.9,28.1,11111222
BP,ioos:station:wmo:42907:1,2021-07-02T20:55:00Z,28.4401,-88.2729,15.0,28.1,11111222
BP,ioos:station:wmo:42907:1,2021-07-02T21:05:00Z,28.4401,-88.2729,14.9,28.1,11111222
BP,ioos:station:wmo:42907:1,2021-07-02T21:15:00Z,28.4401,-88.2729,15.1,28.1,11111222
BP,ioos:station:wmo:42907:1,2021-07-02T21:25:00Z,28.4401,-88.2729,15.1,28.1,11111222
BP,ioos:station:wmo:42907:1,2021-07-02T21:35:00Z,28.4401,-88.2729,15.1,28.1,11111222
BP,ioos:station:wmo:42907:1,2021-07-02T21:46:00Z,28.4401,-88.2729,15.1,28.1,11111222
BP,ioos:station:wmo:42907:1,2021-07-02T21:56:00Z,28.4401,-88.2729,15.1,28.1,11111222
BP,ioos:station:wmo:42907:1,2021-07-02T22:06:00Z,28.4401,-88.2729,14.9,28.1,11111222
BP,ioos:station:wmo:42907:1,2021-07-02T22:16:00Z,28.4401,-88.2729,14.9,28.1,11111222
BP,ioos:station:wmo:42907:1,2021-07-02T22:26:00Z,28.4401,-88.2729,15.2,28.1,11111222